Location: ?????????
(54.7630°N, 39.4991°E)
Time: 20:59:48
(UTC+00:00)

Cosmos 2278 Rocket - Pass Details

Date: 14 April 2026
Orbit: 839 x 845 km, 71.0° (Epoch: 16 May)

Event Time Altitude Azimuth Distance (km) Brightness Sun altitude
Rises 17:09:18 0° 326° (NW) 3,419 6.6 -6.9°
Reaches altitude 10° 17:11:47 10° 329° (NNW) 2,480 5.7 -7.2°
Maximum altitude 17:17:28 73° 54° (NE) 888 2.3 -7.9°
Drops below altitude 10° 17:23:08 10° 139° (SE) 2,464 4.0 -8.6°
Enters shadow 17:23:22 - 140° (SE) 2,550 4.1 -8.7°
